FENGYUN 1C DEB, 30294

Orbit data source: Space-Track

FENGYUN 1C DEB, 30294 is space debris in SSO originally from a launch on Mon, 10 May 1999 UTC launched from the Taiyaun Space Center, China (TSC). Fengyun 1C debris stems from the Chinese weather satellite Fengyun-1C, which was intentionally destroyed by a Chinese anti-satellite missile in 2007. This event dramatically increased the amount of space debris, with thousands of trackable fragments posing hazards to satellites and human spaceflight. The Fengyun 1C debris cloud has become a focal point in discussions about space sustainability and the need for international regulations to prevent the creation of new debris.

Loading next visibility...
Identifier
30294, 1999-025ZF
Orbit
SSO
Country
Flag of CNCN / PRC
Related business
Manufacturer
Unknown
Mission
Spacecraft
Bus & Motor
Unknown
Mass
Unknown
Launch date (UTC)
1999-05-10 (26 years ago)
Launch vehicle
Unknown
Launch site
Taiyaun Space Center, China (TSC)
Object type
Payload
Rocket body
Debris
Shape & HBR
Unknown shape, 0.1 m
Radar Cross Section
Small (<0.1 m²)

Expand to show TLE details & history
Last TLE update: 1 day ago

TLE from 1 day ago
0 FENGYUN 1C DEB
1 30294U 99025ZF  25290.92090390  .00001233  00000-0  36040-3 0  9998
2 30294  98.3528 280.9424 0199880 115.7668 303.2683 14.34719523977369
Epoch: 2025-10-17T22:06Z
TLE epoch observation values (Epoch: 2025-10-17T22:06:06.096Z)
Latitude
56.26779°
Longitude
-89.87526°
Altitude
708.945 km
Speed
7.547 km/s
True Right ascension
17h 53m 14s
True Declination
56° 06' 28"
Sunlit
Object was in daylight at epoch
Visualization orbit readout
Latitude
Unknown
Longitude
Unknown
Altitude
Unknown
Speed
Unknown
Apparent Right ascension
Unknown
Apparent Declination
Unknown
Sunlit
N/A
Visualization observer readout
Local Sidereal Time
21:17:31
Azimuth
Unknown
Elevation
Unknown
Doppler factor
Unknown
Orbital elements
Apogee altitude
916.058 km
Perigee altitude
630.18 km
Semi-major axis
7,151.256 km
Eccentricity
0.01999
Inclination
98.3528°
RAAN
280.9424°
Arg. of periapsis
115.7668°
True anomaly
301.327°
Mean anomaly
303.2683°
Eccentric anomaly
302.30029°
Mean motion
3.58897 °/min
Orbital period
100.31 mins
BSTAR
0.0003604
Loading maneuver chart data...
Computing Atmospheric mass density...

Documentation

Showing up to 5 results
|